NSZ3868 EKBI-LPPR

Flight info

Callsign NSZ3868
Flight time N/A
Altitude 34000
Route ASKOV DCT TUSKA DCT KONOM DCT NAVPI DCT BARMI P7 IDESI/N0448F360 M40 NILON L610 GILDA L620 SAM N63 LELNA/N0446F350 DCT DEGEX DCT GATMO DCT ATLEN DCT ROVAK DCT ASPOR
Aircraft A320/M-SDE3FGHIRWY/LB1

Departure

Time 2026-05-04 11:59
Airport Billund Airport (EKBI)

Arrival

Time N/A
Airport Francisco de Sá Carneiro Airport (LPPR)
Time Latitude Longitude Altitude Speed Heading
2026-05-04 11:46 55.74531 9.14552 216 ft 0 kts 357°
2026-05-04 11:50 55.74521 9.14553 221 ft 4 kts 357°
2026-05-04 11:50 55.74494 9.14556 216 ft 4 kts 356°
2026-05-04 11:51 55.74473 9.14558 216 ft 4 kts 358°
2026-05-04 11:51 55.74449 9.14551 216 ft 4 kts 43°
2026-05-04 11:51 55.74441 9.14517 224 ft 4 kts 87°
2026-05-04 11:51 55.74440 9.14498 217 ft 0 kts 86°
2026-05-04 11:53 55.74440 9.14501 217 ft 2 kts 86°
2026-05-04 11:53 55.74444 9.14623 216 ft 14 kts 86°
2026-05-04 11:53 55.74450 9.14809 216 ft 16 kts 87°
2026-05-04 11:55 55.74226 9.15890 216 ft 19 kts 86°
2026-05-04 11:55 55.74230 9.16133 216 ft 20 kts 87°
2026-05-04 11:56 55.74238 9.16390 216 ft 21 kts 87°
2026-05-04 11:56 55.74247 9.16662 216 ft 23 kts 87°
2026-05-04 11:56 55.74255 9.16943 216 ft 24 kts 87°
2026-05-04 11:56 55.74264 9.17239 216 ft 25 kts 87°
2026-05-04 11:57 55.74274 9.17551 216 ft 26 kts 86°
2026-05-04 11:57 55.74284 9.17873 216 ft 27 kts 86°
2026-05-04 11:57 55.74240 9.18133 216 ft 20 kts 154°
2026-05-04 11:57 55.74123 9.18086 216 ft 18 kts 253°
2026-05-04 11:58 55.74120 9.18013 219 ft 0 kts 266°
2026-05-04 11:58 55.74119 9.17996 219 ft 2 kts 266°
2026-05-04 11:58 55.74115 9.17864 216 ft 32 kts 266°
2026-05-04 11:58 55.74090 9.16997 216 ft 105 kts 267°
2026-05-04 11:59 55.74040 9.15367 226 ft 157 kts 267°
2026-05-04 11:59 55.73997 9.13302 632 ft 176 kts 271°
2026-05-04 11:59 55.74230 9.11100 1317 ft 188 kts 292°
2026-05-04 11:59 55.74912 9.09105 1899 ft 194 kts 304°
2026-05-04 12:00 55.75799 9.07085 2155 ft 222 kts 308°
2026-05-04 12:00 55.76844 9.04898 2641 ft 239 kts 310°
2026-05-04 12:00 55.77941 9.02628 3447 ft 245 kts 309°
2026-05-04 12:00 55.79024 9.00264 4233 ft 248 kts 300°
2026-05-04 12:01 55.79458 8.97339 4995 ft 250 kts 265°
2026-05-04 12:01 55.79037 8.94366 5749 ft 254 kts 250°
2026-05-04 12:02 55.74301 8.76881 10181 ft 273 kts 248°
2026-05-04 12:03 55.73500 8.73678 10334 ft 295 kts 248°
2026-05-04 12:03 55.72649 8.70233 10504 ft 313 kts 248°
2026-05-04 12:03 55.71763 8.66660 10997 ft 319 kts 246°
2026-05-04 12:03 55.70590 8.63282 11582 ft 325 kts 234°
2026-05-04 12:04 55.68982 8.60422 12187 ft 332 kts 221°
2026-05-04 12:04 55.67031 8.58172 12781 ft 337 kts 215°
2026-05-04 12:04 55.65017 8.56027 13382 ft 339 kts 215°
2026-05-04 12:04 55.62989 8.53864 13955 ft 342 kts 215°
2026-05-04 12:05 55.60944 8.51678 14493 ft 344 kts 215°
2026-05-04 12:05 55.58888 8.49478 15046 ft 346 kts 215°
2026-05-04 12:05 55.56820 8.47265 15569 ft 349 kts 215°
2026-05-04 12:05 55.54739 8.45042 16082 ft 351 kts 215°
2026-05-04 12:06 55.52645 8.42804 16593 ft 353 kts 215°
2026-05-04 12:06 55.50537 8.40557 17106 ft 355 kts 215°
2026-05-04 12:06 55.48414 8.38299 17604 ft 357 kts 215°
2026-05-04 12:06 55.46280 8.36033 18145 ft 359 kts 215°
2026-05-04 12:07 55.44128 8.33753 18617 ft 362 kts 215°
2026-05-04 12:07 55.41961 8.31464 19051 ft 365 kts 215°
2026-05-04 12:07 55.39779 8.29162 19505 ft 367 kts 215°
2026-05-04 12:07 55.37583 8.26845 19956 ft 369 kts 215°
2026-05-04 12:08 55.35371 8.24512 20398 ft 372 kts 215°
2026-05-04 12:08 55.33148 8.22167 20831 ft 374 kts 215°
2026-05-04 12:08 55.30910 8.19810 21256 ft 376 kts 214°
2026-05-04 12:08 55.28660 8.17445 21678 ft 378 kts 214°
2026-05-04 12:09 55.26394 8.15066 22081 ft 381 kts 214°
2026-05-04 12:09 55.24147 8.12712 22454 ft 383 kts 214°
2026-05-04 12:09 55.21857 8.10320 22888 ft 384 kts 214°
2026-05-04 12:09 55.19556 8.07919 23300 ft 386 kts 214°
2026-05-04 12:10 55.17247 8.05507 23678 ft 388 kts 214°
2026-05-04 12:10 55.14893 8.03049 24005 ft 390 kts 214°
2026-05-04 12:10 55.12555 8.00613 24313 ft 392 kts 214°
2026-05-04 12:10 55.10235 7.98204 24625 ft 395 kts 214°
2026-05-04 12:11 55.07867 7.95746 24928 ft 397 kts 214°
2026-05-04 12:11 55.05487 7.93279 25228 ft 399 kts 214°
2026-05-04 12:11 55.03090 7.90799 25526 ft 402 kts 214°
2026-05-04 12:11 55.00720 7.88215 25791 ft 402 kts 219°
2026-05-04 12:12 54.98608 7.85063 26144 ft 399 kts 228°
2026-05-04 12:12 54.96696 7.81556 26479 ft 400 kts 229°
2026-05-04 12:12 54.94777 7.78041 26789 ft 401 kts 229°
2026-05-04 12:12 54.92847 7.74520 27101 ft 403 kts 228°
2026-05-04 12:13 54.90904 7.70983 27394 ft 405 kts 228°
2026-05-04 12:14 54.76985 7.45799 29582 ft 417 kts 228°
2026-05-04 12:15 54.74988 7.42213 30192 ft 411 kts 227°
2026-05-04 12:15 54.73011 7.38671 30639 ft 408 kts 227°
2026-05-04 12:15 54.71043 7.35149 31017 ft 407 kts 228°
2026-05-04 12:15 54.69077 7.31633 31371 ft 406 kts 228°
2026-05-04 12:16 54.67117 7.28127 31733 ft 406 kts 228°
2026-05-04 12:16 54.65156 7.24628 32081 ft 405 kts 228°
2026-05-04 12:16 54.63196 7.21136 32435 ft 405 kts 228°
2026-05-04 12:16 54.61238 7.17648 32789 ft 404 kts 228°
2026-05-04 12:17 54.59282 7.14167 33141 ft 404 kts 228°
2026-05-04 12:17 54.57326 7.10692 33478 ft 404 kts 228°
2026-05-04 12:17 54.55372 7.07219 33814 ft 403 kts 228°
2026-05-04 12:17 54.53415 7.03753 34003 ft 403 kts 228°
2026-05-04 12:18 54.49462 6.96770 34050 ft 412 kts 227°
2026-05-04 12:18 54.45419 6.89649 34043 ft 418 kts 227°
2026-05-04 12:19 54.41372 6.82537 34043 ft 420 kts 227°
2026-05-04 12:19 54.37282 6.75388 34043 ft 420 kts 227°
2026-05-04 12:20 54.33185 6.68255 34043 ft 420 kts 227°
2026-05-04 12:20 54.29086 6.61137 34046 ft 419 kts 227°
2026-05-04 12:21 54.25002 6.54052 34071 ft 417 kts 227°
2026-05-04 12:21 54.20934 6.47012 34069 ft 416 kts 227°
2026-05-04 12:22 54.16871 6.39999 34071 ft 415 kts 227°
2026-05-04 12:22 54.12808 6.33019 34062 ft 415 kts 227°
2026-05-04 12:23 54.08726 6.26030 34029 ft 417 kts 226°
2026-05-04 12:23 54.04634 6.19041 34059 ft 416 kts 226°
2026-05-04 12:24 54.00555 6.12081 34056 ft 415 kts 226°
2026-05-04 12:24 53.96479 6.05162 34057 ft 414 kts 226°
2026-05-04 12:25 53.92411 5.98267 34063 ft 413 kts 226°
2026-05-04 12:25 53.88344 5.91389 34049 ft 413 kts 226°
2026-05-04 12:26 53.84273 5.84535 34037 ft 412 kts 226°
2026-05-04 12:26 53.80207 5.77724 34055 ft 410 kts 226°
2026-05-04 12:27 53.76157 5.70952 34051 ft 409 kts 226°
2026-05-04 12:27 53.72102 5.64189 34043 ft 410 kts 226°
2026-05-04 12:28 53.68729 5.58571 34043 ft 410 kts 226°
2026-05-04 12:28 53.64658 5.51823 34040 ft 410 kts 226°
2026-05-04 12:29 53.62259 5.46938 34036 ft 409 kts 237°
2026-05-04 12:29 53.61213 5.44226 34032 ft 408 kts 237°
2026-05-04 12:29 53.58114 5.36226 34057 ft 407 kts 237°
2026-05-04 12:30 53.55007 5.28264 34062 ft 407 kts 237°
2026-05-04 12:30 53.51916 5.20392 34062 ft 406 kts 237°
2026-05-04 12:31 53.48808 5.12484 34062 ft 406 kts 237°
2026-05-04 12:31 53.45689 5.04575 34046 ft 407 kts 237°
2026-05-04 12:32 53.40994 4.92695 34034 ft 408 kts 237°
2026-05-04 12:33 53.37846 4.84782 34034 ft 408 kts 237°
2026-05-04 12:33 53.34691 4.76871 34034 ft 408 kts 237°
2026-05-04 12:34 53.31537 4.68966 34042 ft 409 kts 236°
2026-05-04 12:34 53.28374 4.61071 34051 ft 409 kts 236°
2026-05-04 12:35 53.25197 4.53194 34042 ft 409 kts 236°
2026-05-04 12:35 53.22021 4.45325 34043 ft 409 kts 236°
2026-05-04 12:36 53.18839 4.37469 34048 ft 409 kts 236°
2026-05-04 12:36 53.15655 4.29621 34041 ft 408 kts 236°
2026-05-04 12:37 53.12475 4.21825 34052 ft 406 kts 236°
2026-05-04 12:37 53.09308 4.14069 34055 ft 404 kts 236°
2026-05-04 12:38 53.06144 4.06345 34055 ft 404 kts 236°
2026-05-04 12:38 53.02974 3.98635 34037 ft 404 kts 236°
2026-05-04 12:39 52.99791 3.90920 34026 ft 405 kts 236°
2026-05-04 12:39 52.96596 3.83196 34031 ft 406 kts 236°
2026-05-04 12:40 52.93395 3.75476 34031 ft 406 kts 235°
2026-05-04 12:40 52.90201 3.67791 34045 ft 404 kts 235°
2026-05-04 12:41 52.87034 3.60204 34049 ft 402 kts 235°
2026-05-04 12:41 52.83850 3.52604 34070 ft 402 kts 235°
2026-05-04 12:42 52.80659 3.45008 34046 ft 403 kts 234°
2026-05-04 12:42 52.77451 3.37400 34027 ft 404 kts 234°
2026-05-04 12:43 52.74237 3.29787 34027 ft 405 kts 234°
2026-05-04 12:43 52.71014 3.22166 34020 ft 405 kts 234°
2026-05-04 12:44 52.67792 3.14573 34038 ft 404 kts 234°
2026-05-04 12:44 52.64568 3.07012 34042 ft 403 kts 234°
2026-05-04 12:45 52.61341 2.99482 34065 ft 402 kts 234°
2026-05-04 12:45 52.58125 2.92009 34037 ft 404 kts 234°
2026-05-04 12:46 52.54939 2.84396 34025 ft 405 kts 239°
2026-05-04 12:46 52.52655 2.75899 34023 ft 407 kts 246°
2026-05-04 12:47 52.50469 2.67311 34027 ft 408 kts 245°
2026-05-04 12:47 52.47656 2.59308 34025 ft 405 kts 229°
2026-05-04 12:48 52.43341 2.53442 34037 ft 405 kts 210°
2026-05-04 12:48 52.38298 2.49290 34040 ft 406 kts 208°
2026-05-04 12:49 52.33235 2.45190 34040 ft 407 kts 207°
2026-05-04 12:49 52.28157 2.41086 34028 ft 408 kts 207°
2026-05-04 12:50 52.23064 2.36984 34026 ft 408 kts 207°
2026-05-04 12:50 52.18010 2.32927 34038 ft 407 kts 207°
2026-05-04 12:51 52.12933 2.28837 34043 ft 407 kts 210°
2026-05-04 12:51 52.08521 2.23194 34043 ft 405 kts 228°
2026-05-04 12:52 52.04830 2.16284 34043 ft 405 kts 228°
2026-05-04 12:52 52.01113 2.09410 34041 ft 405 kts 227°
2026-05-04 12:53 51.97391 2.02554 34044 ft 404 kts 227°
2026-05-04 12:53 51.93672 1.95722 34044 ft 404 kts 227°
2026-05-04 12:54 51.90180 1.88584 34047 ft 406 kts 238°
2026-05-04 12:54 51.88057 1.80070 34035 ft 410 kts 249°
2026-05-04 12:55 51.86283 1.71282 34028 ft 411 kts 249°
2026-05-04 12:55 51.84483 1.62500 34032 ft 411 kts 249°
2026-05-04 12:56 51.82673 1.53725 34038 ft 412 kts 249°
2026-05-04 12:56 51.80858 1.44948 34046 ft 412 kts 249°
2026-05-04 12:57 51.79056 1.36213 34032 ft 413 kts 248°
2026-05-04 12:57 51.77223 1.27413 34036 ft 414 kts 248°
2026-05-04 12:58 51.75378 1.18601 34032 ft 415 kts 248°
2026-05-04 12:58 51.73528 1.09791 34030 ft 415 kts 248°
2026-05-04 12:59 51.71664 1.00980 34034 ft 415 kts 248°
2026-05-04 12:59 51.69439 0.92448 34045 ft 411 kts 236°
2026-05-04 13:00 51.66411 0.84612 34023 ft 412 kts 236°
2026-05-04 13:00 51.63378 0.76761 34025 ft 413 kts 236°
2026-05-04 13:01 51.60928 0.68357 34034 ft 417 kts 246°
2026-05-04 13:01 51.59458 0.59299 34033 ft 419 kts 250°
2026-05-04 13:02 51.56932 0.51002 34019 ft 412 kts 232°
2026-05-04 13:02 51.53552 0.43552 34029 ft 414 kts 232°
2026-05-04 13:03 51.50206 0.36017 34008 ft 415 kts 232°
2026-05-04 13:03 51.46847 0.28470 34013 ft 416 kts 232°
2026-05-04 13:04 51.43474 0.20924 34026 ft 417 kts 232°
2026-05-04 13:04 51.40081 0.13385 34035 ft 417 kts 232°
2026-05-04 13:05 51.36705 0.05904 34035 ft 417 kts 232°
2026-05-04 13:05 51.33306 -0.01621 34053 ft 417 kts 232°
2026-05-04 13:06 51.29894 -0.09146 34026 ft 419 kts 231°
2026-05-04 13:06 51.26465 -0.16673 34026 ft 419 kts 231°
2026-05-04 13:07 51.23028 -0.24203 34028 ft 420 kts 231°
2026-05-04 13:07 51.19586 -0.31731 34032 ft 420 kts 231°
2026-05-04 13:08 51.16136 -0.39249 34034 ft 420 kts 231°
2026-05-04 13:08 51.12687 -0.46763 34033 ft 420 kts 231°
2026-05-04 13:09 51.09226 -0.54257 34035 ft 420 kts 231°
2026-05-04 13:09 51.05996 -0.62008 34033 ft 424 kts 242°
2026-05-04 13:10 51.04260 -0.70994 34030 ft 428 kts 255°
2026-05-04 13:10 51.03038 -0.80193 34025 ft 428 kts 255°
2026-05-04 13:11 51.01776 -0.89440 34029 ft 429 kts 254°
2026-05-04 13:11 51.00495 -0.98760 34032 ft 429 kts 255°
2026-05-04 13:12 50.99231 -1.07972 33998 ft 431 kts 255°
2026-05-04 13:12 50.97943 -1.17266 33994 ft 432 kts 255°
2026-05-04 13:13 50.96462 -1.26472 33997 ft 429 kts 245°
2026-05-04 13:13 50.95129 -1.30674 33997 ft 425 kts 234°
2026-05-04 13:13 50.93349 -1.34381 33997 ft 422 kts 225°
2026-05-04 13:14 50.88729 -1.39949 33993 ft 417 kts 206°
2026-05-04 13:14 50.83530 -1.44080 33995 ft 419 kts 205°
2026-05-04 13:15 50.78316 -1.48227 33988 ft 420 kts 205°
2026-05-04 13:15 50.73089 -1.52379 33996 ft 421 kts 205°
2026-05-04 13:16 50.67846 -1.56527 34002 ft 422 kts 205°
2026-05-04 13:16 50.62597 -1.60673 34020 ft 422 kts 205°
2026-05-04 13:17 50.57386 -1.64786 34040 ft 422 kts 205°
2026-05-04 13:17 50.52143 -1.68904 34042 ft 421 kts 205°
2026-05-04 13:18 50.46900 -1.73004 34049 ft 421 kts 205°
2026-05-04 13:18 50.41661 -1.77094 34046 ft 420 kts 205°